Terminal Aerodrome Forecast
Issued by NWS

Home | Current Version | Previous Version | Text Only | Print | Product List | Glossary Off
Versions: 1 2 3 4 5 6 7 8 9 10 11 12 13 14 15 16 17 18 19 20 21 22

000
FTUS43 KABR 141722
TAFATY
TAF
KATY 141722Z 1418/1518 05009KT P6SM VCSH OVC020
     FM142000 03011KT 1 1/2SM RA OVC015
     FM142200 01014G21KT 3SM SHRA OVC010
     FM150400 34014G21KT P6SM BKN025
     FM150700 32011KT P6SM SCT050=

USA.gov is the U.S. government's official web portal to all federal, state and local government web resources and services.